Voltar ao catálogo

HULIANWANG DIGUI-08

AtivoComunicaçõesPO
NORAD 62330·PAYLOAD·🇨🇳 China

Lançado Dec 16, 2024 de Wenchang Space Launch Site

Loading…

Próximas Passagens (próximas 24 horas)

TLE

AtualizadoSource: Space-Track

Época: Sep 14, 2026, 22:42 UTC

1 62330U 24240H   26257.94598308  .00000059  00000-0  10256-3 0  9995
2 62330  86.5029 313.1665 0001464  89.7142 270.4160 13.24414049 84528

Acompanhe HULIANWANG DIGUI-08 em tempo real com AllMySat

Download on the App Store